TimeCST,TemperatureF,Dew PointF,Humidity,Sea Level PressureIn,VisibilityMPH,Wind Direction,Wind SpeedMPH,Gust SpeedMPH,PrecipitationIn,Events,Conditions,WindDirDegrees,DateUTC
12:15 AM,39.2,21.2,49,30.26,10.0,Calm,Calm,-,N/A,,Clear,0,2012-11-15 06:15:00
12:35 AM,37.4,21.2,52,30.26,10.0,SSE,3.5,-,N/A,,Partly Cloudy,160,2012-11-15 06:35:00
12:55 AM,44.6,21.2,39,30.26,10.0,SSE,5.8,-,N/A,,Partly Cloudy,150,2012-11-15 06:55:00
1:15 AM,41.0,23.0,49,30.26,10.0,SSE,4.6,-,N/A,,Clear,150,2012-11-15 07:15:00
1:35 AM,37.4,23.0,56,30.26,10.0,Calm,Calm,-,N/A,,Partly Cloudy,0,2012-11-15 07:35:00
1:55 AM,35.6,23.0,60,30.27,10.0,West,3.5,-,N/A,,Partly Cloudy,270,2012-11-15 07:55:00
2:15 AM,37.4,23.0,56,30.27,10.0,Calm,Calm,-,N/A,,Clear,0,2012-11-15 08:15:00
2:35 AM,35.6,23.0,60,30.28,10.0,Calm,Calm,-,N/A,,Clear,0,2012-11-15 08:35:00
2:55 AM,35.6,21.2,56,30.27,10.0,Calm,Calm,-,N/A,,Partly Cloudy,0,2012-11-15 08:55:00
3:15 AM,35.6,23.0,60,30.27,10.0,Calm,Calm,-,N/A,,Partly Cloudy,0,2012-11-15 09:15:00
3:35 AM,32.0,23.0,69,30.26,10.0,Calm,Calm,-,N/A,,Scattered Clouds,0,2012-11-15 09:35:00
3:55 AM,32.0,23.0,69,30.26,10.0,NW,4.6,-,N/A,,Scattered Clouds,320,2012-11-15 09:55:00
4:15 AM,32.0,23.0,69,30.26,10.0,Calm,Calm,-,N/A,,Partly Cloudy,0,2012-11-15 10:15:00
4:35 AM,32.0,21.2,64,30.25,10.0,Calm,Calm,-,N/A,,Partly Cloudy,0,2012-11-15 10:35:00
4:55 AM,32.0,23.0,69,30.25,10.0,Calm,Calm,-,N/A,,Mostly Cloudy,0,2012-11-15 10:55:00
5:15 AM,33.8,23.0,65,30.26,10.0,Calm,Calm,-,N/A,,Overcast,0,2012-11-15 11:15:00
5:55 AM,32.0,23.0,69,30.25,10.0,North,-9999.0,-,N/A,,Mostly Cloudy,0,2012-11-15 11:55:00
6:15 AM,33.8,23.0,65,30.25,10.0,Calm,Calm,-,N/A,,Overcast,0,2012-11-15 12:15:00
6:35 AM,37.4,24.8,60,30.26,10.0,Calm,Calm,-,N/A,,Overcast,0,2012-11-15 12:35:00
6:55 AM,37.4,24.8,60,30.27,10.0,Calm,Calm,-,N/A,,Overcast,0,2012-11-15 12:55:00
7:15 AM,39.2,24.8,56,30.27,10.0,Calm,Calm,-,N/A,,Overcast,0,2012-11-15 13:15:00
7:35 AM,41.0,26.6,57,30.27,10.0,Calm,Calm,-,N/A,,Overcast,0,2012-11-15 13:35:00
7:55 AM,41.0,26.6,57,30.29,5.0,Calm,Calm,-,N/A,,Haze,0,2012-11-15 13:55:00
8:15 AM,44.6,26.6,49,30.29,6.0,Calm,Calm,-,N/A,,Haze,0,2012-11-15 14:15:00
8:55 AM,48.2,28.4,46,30.29,10.0,SSE,6.9,-,N/A,,Overcast,160,2012-11-15 14:55:00
9:15 AM,50.0,30.2,47,30.29,10.0,SSE,5.8,-,N/A,,Overcast,150,2012-11-15 15:15:00
9:35 AM,51.8,32.0,47,30.29,10.0,South,6.9,-,N/A,,Overcast,170,2012-11-15 15:35:00
9:55 AM,53.6,33.8,47,30.29,7.0,SSE,5.8,-,N/A,,Overcast,150,2012-11-15 15:55:00
10:15 AM,55.4,35.6,47,30.29,10.0,SE,6.9,-,N/A,,Overcast,140,2012-11-15 16:15:00
10:35 AM,57.2,37.4,48,30.29,10.0,South,5.8,-,N/A,,Overcast,180,2012-11-15 16:35:00
10:55 AM,57.2,37.4,48,30.29,10.0,South,4.6,-,N/A,,Overcast,190,2012-11-15 16:55:00
11:15 AM,59.0,41.0,51,30.29,10.0,South,9.2,-,N/A,,Overcast,180,2012-11-15 17:15:00
11:55 AM,59.0,42.8,55,30.27,10.0,SSE,6.9,-,N/A,,Overcast,160,2012-11-15 17:55:00
12:15 PM,62.6,44.6,52,30.25,10.0,South,6.9,-,N/A,,Overcast,170,2012-11-15 18:15:00
12:35 PM,62.6,44.6,52,30.24,10.0,SE,10.4,-,N/A,,Overcast,140,2012-11-15 18:35:00
12:55 PM,64.4,44.6,49,30.23,10.0,South,8.1,-,N/A,,Overcast,180,2012-11-15 18:55:00
1:15 PM,62.6,44.6,52,30.21,10.0,South,5.8,-,N/A,,Overcast,190,2012-11-15 19:15:00
1:35 PM,62.6,44.6,52,30.20,10.0,South,6.9,-,N/A,,Overcast,170,2012-11-15 19:35:00
1:55 PM,64.4,44.6,49,30.20,10.0,SSW,12.7,16.1,N/A,,Overcast,210,2012-11-15 19:55:00
2:15 PM,64.4,44.6,49,30.20,10.0,South,10.4,-,N/A,,Overcast,170,2012-11-15 20:15:00
2:35 PM,66.2,44.6,46,30.20,10.0,South,11.5,17.3,N/A,,Mostly Cloudy,190,2012-11-15 20:35:00
2:55 PM,66.2,44.6,46,30.20,10.0,SSE,8.1,-,N/A,,Partly Cloudy,150,2012-11-15 20:55:00
3:15 PM,66.2,44.6,46,30.19,10.0,South,9.2,-,N/A,,Clear,180,2012-11-15 21:15:00
3:55 PM,66.2,42.8,43,30.20,10.0,South,6.9,-,N/A,,Scattered Clouds,190,2012-11-15 21:55:00
4:15 PM,64.4,42.8,45,30.20,10.0,South,5.8,-,N/A,,Clear,170,2012-11-15 22:15:00
4:55 PM,62.6,41.0,45,30.20,10.0,ESE,3.5,-,N/A,,Clear,120,2012-11-15 22:55:00
5:15 PM,59.0,41.0,51,30.21,10.0,East,3.5,-,N/A,,Clear,100,2012-11-15 23:15:00
5:35 PM,57.2,41.0,55,30.21,10.0,East,4.6,-,N/A,,Clear,100,2012-11-15 23:35:00
5:55 PM,55.4,41.0,58,30.22,10.0,East,3.5,-,N/A,,Clear,100,2012-11-15 23:55:00
6:15 PM,55.4,39.2,54,30.23,10.0,SE,8.1,-,N/A,,Partly Cloudy,130,2012-11-16 00:15:00
6:35 PM,57.2,39.2,51,30.24,10.0,SE,5.8,-,N/A,,Partly Cloudy,140,2012-11-16 00:35:00
6:55 PM,53.6,39.2,58,30.25,10.0,SE,6.9,-,N/A,,Partly Cloudy,130,2012-11-16 00:55:00
7:55 PM,53.6,37.4,54,30.27,10.0,ESE,5.8,-,N/A,,Scattered Clouds,120,2012-11-16 01:55:00
8:15 PM,51.8,37.4,58,30.27,10.0,SE,5.8,-,N/A,,Mostly Cloudy,130,2012-11-16 02:15:00
8:35 PM,50.0,37.4,62,30.27,10.0,SE,3.5,-,N/A,,Mostly Cloudy,140,2012-11-16 02:35:00
9:15 PM,50.0,37.4,62,30.28,10.0,North,-9999.0,-,N/A,,Mostly Cloudy,0,2012-11-16 03:15:00
9:55 PM,50.0,37.4,62,30.29,10.0,North,-9999.0,-,N/A,,Mostly Cloudy,0,2012-11-16 03:55:00
10:15 PM,46.4,37.4,71,30.30,10.0,Calm,Calm,-,N/A,,Overcast,0,2012-11-16 04:15:00
10:35 PM,46.4,37.4,71,30.30,10.0,Calm,Calm,-,N/A,,Overcast,0,2012-11-16 04:35:00
10:55 PM,46.4,37.4,71,30.30,10.0,Calm,Calm,-,N/A,,Overcast,0,2012-11-16 04:55:00
11:15 PM,48.2,39.2,71,30.30,10.0,Calm,Calm,-,N/A,,Overcast,0,2012-11-16 05:15:00
11:35 PM,46.4,37.4,71,30.31,10.0,North,-9999.0,-,N/A,,Overcast,0,2012-11-16 05:35:00
11:55 PM,48.2,37.4,66,30.31,10.0,Calm,Calm,-,N/A,,Overcast,0,2012-11-16 05:55:00